Location: D�pe
(52.6057°N, 8.1808°E)
Time: 14:12:23
(UTC+00:00)

CZ-4B R/B - Pass Details

Date: 29 October 2020
Orbit: 808 x 882 km, 99.1° (Epoch: 28 November)

Event Time Altitude Azimuth Distance (km) Brightness Sun altitude
Rises 16:42:49 0° 167° (SSE) 3,448 6.4 -6.7°
Reaches altitude 10° 16:45:13 10° 169° (S) 2,505 5.7 -7.1°
Maximum altitude 16:50:47 75° 255° (WSW) 891 3.5 -7.9°
Drops below altitude 10° 16:56:17 10° 341° (NNW) 2,475 5.7 -8.7°
Sets 16:58:39 0° 343° (NNW) 3,403 6.4 -9.1°
